FW8459 Weather Reports


Display with metric or nautical units.
time (UTC)temp
F
wind
direction
speed
MPH
gust
MPH
rain 1hr
in
rain 24hr
in
rain mn
in
humidity
%
barometer
mb
20260906084539 49 238 0.0 1.0 0.00 0.01 0.01 84 1021.8
20260906084037 49 244 1.0 1.0 0.00 0.01 0.01 84 1021.9
20260906083534 50 245 1.0 1.0 0.00 0.01 0.01 84 1022.0
20260906083033 50 241 1.0 1.0 0.00 0.01 0.01 83 1021.9
20260906082528 50 239 1.0 1.0 0.00 0.01 0.01 82 1021.9
20260906082024 51 282 0.0 0.0 0.00 0.01 0.01 82 1022.0
20260906081520 51 194 1.0 1.0 0.00 0.01 0.01 81 1021.9
20260906081016 51 237 1.0 1.0 0.00 0.01 0.01 81 1021.8
20260906080512 51 227 1.0 2.0 0.00 0.01 0.01 81 1021.9
20260906080008 52 235 2.0 2.0 0.00 0.01 0.01 81 1021.3
20260906075502 52 216 1.0 2.0 0.00 0.01 0.01 80 1021.4
20260906074956 52 239 1.0 2.0 0.00 0.01 0.01 79 1021.4
20260906074451 53 193 1.0 2.0 0.00 0.01 0.01 78 1021.4
20260906073949 53 240 1.0 1.0 0.00 0.01 0.01 78 1021.1
20260906073444 54 197 4.0 5.0 0.00 0.01 0.01 77 1021.3
20260906072941 54 210 1.0 2.0 0.00 0.01 0.01 76 1021.2
20260906072436 55 200 3.0 3.0 0.00 0.01 0.01 75 1021.2
20260906071932 55 187 3.0 5.0 0.00 0.01 0.01 74 1021.0
20260906071427 56 260 3.0 5.0 0.00 0.01 0.01 73 1020.9
20260906070923 57 171 3.0 3.0 0.00 0.01 0.01 72 1020.8
20260906070419 57 295 1.0 2.0 0.00 0.01 0.01 72 1020.7
20260906065915 57 222 2.0 2.0 0.00 0.01 0.01 72 1020.9
20260906065409 57 229 2.0 5.0 0.00 0.01 0.01 71 1020.8
20260906064905 58 173 4.0 6.0 0.00 0.01 0.01 71 1020.7
20260906064401 58 290 5.0 6.0 0.00 0.01 0.01 70 1020.5
20260906063901 58 260 3.0 6.0 0.00 0.01 0.01 70 1020.7
20260906063356 58 203 2.0 2.0 0.00 0.01 0.01 71 1020.6
20260906062851 59 226 2.0 5.0 0.00 0.01 0.01 70 1020.3
20260906062350 59 200 5.0 6.0 0.00 0.01 0.01 69 1020.3
20260906061846 59 223 4.0 6.0 0.00 0.01 0.01 69 1020.4
20260906061342 59 222 2.0 2.0 0.00 0.01 0.01 70 1020.3
20260906060836 59 215 2.0 2.0 0.00 0.01 0.01 69 1020.2
20260906060334 59 260 2.0 2.0 0.00 0.01 0.01 69 1020.3
20260906055830 59 255 2.0 3.0 0.00 0.01 0.01 69 1020.2
20260906055325 59 208 2.0 2.0 0.00 0.01 0.01 69 1020.3
20260906054821 59 263 3.0 3.0 0.00 0.01 0.01 69 1020.4
20260906054315 59 163 1.0 2.0 0.00 0.01 0.01 68 1020.3
20260906053812 59 184 1.0 3.0 0.00 0.01 0.01 69 1020.0
20260906053307 59 249 3.0 5.0 0.00 0.01 0.01 68 1020.0
20260906052802 60 228 3.0 3.0 0.00 0.01 0.01 68 1020.0
20260906052259 60 221 1.0 2.0 0.00 0.01 0.01 69 1020.2
20260906051756 60 206 3.0 5.0 0.00 0.01 0.01 67 1020.4
20260906051255 60 246 4.0 5.0 0.00 0.01 0.01 68 1020.2
20260906050750 60 233 4.0 6.0 0.00 0.01 0.01 67 1020.2
20260906050246 60 226 2.0 3.0 0.00 0.01 0.01 66 1020.0
20260906045744 61 221 2.0 3.0 0.00 0.01 0.01 66 1020.0
20260906045239 60 231 3.0 3.0 0.00 0.01 0.01 67 1020.3
20260906044735 60 262 2.0 3.0 0.00 0.01 0.01 68 1020.3
20260906044230 59 268 1.0 1.0 0.00 0.01 0.01 68 1020.3
20260906043726 61 231 1.0 2.0 0.00 0.01 0.01 67 1020.2
20260906043222 60 10 2.0 3.0 0.00 0.01 0.01 68 1020.0
20260906042721 60 220 3.0 3.0 0.00 0.01 0.01 68 1020.2
20260906042220 60 280 2.0 2.0 0.00 0.01 0.01 68 1020.0
20260906041716 60 265 2.0 2.0 0.00 0.01 0.01 67 1019.8
20260906041211 61 172 3.0 3.0 0.00 0.01 0.01 64 1019.7
20260906040707 61 232 1.0 2.0 0.00 0.01 0.01 66 1019.8
20260906040201 60 197 3.0 5.0 0.00 0.01 0.01 67 1019.9
20260906035657 59 185 3.0 3.0 0.00 0.01 0.01 68 1020.0
20260906035153 60 198 3.0 3.0 0.00 0.01 0.01 67 1019.8
20260906034653 60 245 2.0 5.0 0.00 0.01 0.01 67 1019.6
20260906034148 60 229 3.0 3.0 0.00 0.01 0.01 67 1019.7
20260906033643 60 202 4.0 5.0 0.00 0.01 0.01 67 1019.9
20260906033138 60 222 2.0 3.0 0.00 0.01 0.01 68 1019.7
20260906032635 59 237 3.0 3.0 0.00 0.01 0.01 69 1019.6
20260906032134 59 209 1.0 2.0 0.00 0.01 0.01 68 1019.8
20260906031630 60 263 1.0 1.0 0.00 0.01 0.01 65 1019.7
20260906031125 60 162 4.0 6.0 0.00 0.01 0.01 66 1019.6
20260906030624 61 241 2.0 3.0 0.00 0.01 0.01 65 1019.8
20260906030120 59 217 3.0 3.0 0.00 0.01 0.01 68 1019.8
20260906025619 59 227 2.0 2.0 0.00 0.01 0.01 68 1019.7
20260906025118 59 213 2.0 3.0 0.00 0.01 0.01 68 1019.7
20260906024613 61 256 3.0 3.0 0.00 0.01 0.01 64 1020.2
20260906024107 60 284 0.0 1.0 0.00 0.01 0.01 67 1020.2
20260906023603 60 221 2.0 2.0 0.00 0.01 0.01 66 1020.3
20260906023057 58 205 3.0 3.0 0.00 0.01 0.01 68 1020.3
20260906022553 59 289 3.0 3.0 0.00 0.01 0.01 67 1019.9
20260906022048 59 209 5.0 7.0 0.00 0.01 0.01 65 1019.9
20260906021544 59 226 3.0 5.0 0.00 0.01 0.01 66 1019.7
20260906021042 59 308 2.0 3.0 0.00 0.01 0.01 68 1019.7
20260906020537 58 194 3.0 3.0 0.00 0.01 0.01 69 1020.0
20260906020037 57 246 4.0 5.0 0.00 0.01 0.01 70 1020.2
20260906015536 58 191 4.0 5.0 0.00 0.01 0.01 68 1020.2
20260906015036 59 227 3.0 5.0 0.00 0.01 0.01 67 1020.3
20260906014531 58 165 2.0 2.0 0.00 0.01 0.01 70 1020.4
20260906014026 59 205 3.0 5.0 0.00 0.01 0.01 69 1020.5
20260906013522 59 207 4.0 5.0 0.00 0.01 0.01 69 1020.5
20260906013017 59 197 3.0 5.0 0.00 0.01 0.01 67 1020.6
20260906012512 58 221 3.0 3.0 0.00 0.01 0.01 68 1020.6
20260906012012 57 249 4.0 5.0 0.00 0.01 0.01 69 1020.7
20260906011508 57 219 4.0 5.0 0.00 0.01 0.01 72 1020.7
20260906011002 55 219 3.0 5.0 0.00 0.01 0.01 71 1020.8
20260906010457 57 197 3.0 3.0 0.00 0.01 0.01 69 1020.8
20260906005954 56 203 1.0 2.0 0.00 0.01 0.01 71 1020.7
20260906005453 55 186 4.0 6.0 0.00 0.01 0.01 72 1020.7
20260906004951 55 220 2.0 2.0 0.00 0.01 0.01 73 1020.6
20260906004446 56 188 3.0 3.0 0.00 0.01 0.01 72 1020.5
20260906003941 57 173 2.0 2.0 0.00 0.01 0.01 71 1020.7
20260906003436 56 208 2.0 3.0 0.00 0.01 0.01 72 1020.6
20260906002931 55 197 3.0 3.0 0.00 0.01 0.01 74 1020.9
20260906002431 54 269 4.0 5.0 0.00 0.01 0.01 75 1020.5
20260906001926 54 189 2.0 2.0 0.00 0.01 0.01 76 1020.0
20260906001422 54 220 2.0 2.0 0.00 0.01 0.01 76 1020.4
20260906000917 53 215 3.0 3.0 0.00 0.01 0.01 76 1020.4
20260906000412 54 145 3.0 3.0 0.00 0.01 0.01 75 1020.3
20260905235907 53 232 1.0 2.0 0.00 0.01 0.01 77 1020.2
20260905235401 54 220 3.0 5.0 0.00 0.01 0.01 77 1020.2
20260905234856 54 224 4.0 7.0 0.00 0.01 0.01 75 1019.9
20260905234351 53 260 3.0 3.0 0.00 0.01 0.01 77 1019.9
20260905233846 52 185 5.0 6.0 0.00 0.01 0.01 77 1019.6
20260905233341 52 155 5.0 7.0 0.00 0.01 0.01 76 1019.9
20260905232841 51 186 3.0 5.0 0.00 0.01 0.01 78 1019.7
20260905232337 51 194 4.0 5.0 0.00 0.01 0.01 78 1019.4
20260905231832 52 197 4.0 8.0 0.00 0.01 0.01 78 1019.6
20260905231333 52 223 2.0 3.0 0.00 0.01 0.01 79 1019.7
20260905230830 51 286 2.0 2.0 0.00 0.01 0.01 80 1019.5
20260905230327 51 257 3.0 3.0 0.00 0.01 0.01 81 1019.7
20260905225826 51 226 3.0 3.0 0.00 0.01 0.01 82 1019.4
20260905225322 50 189 4.0 6.0 0.00 0.01 0.01 82 1019.8
20260905224822 50 219 0.0 1.0 0.00 0.01 0.01 82 1019.8
20260905224318 51 212 3.0 3.0 0.00 0.01 0.01 81 1019.8
20260905223812 52 224 4.0 5.0 0.00 0.01 0.01 78 1019.4
20260905223310 52 213 1.0 2.0 0.00 0.01 0.01 78 1019.1
20260905222805 52 123 1.0 2.0 0.00 0.01 0.01 77 1019.1
20260905222306 51 229 3.0 5.0 0.00 0.01 0.01 79 1019.4
20260905221800 51 230 3.0 3.0 0.00 0.01 0.01 78 1019.5
20260905221256 51 181 3.0 3.0 0.00 0.01 0.01 78 1019.4
20260905220752 50 187 3.0 5.0 0.00 0.01 0.01 79 1019.3
20260905220248 50 183 2.0 2.0 0.00 0.01 0.01 79 1019.4
20260905215747 50 276 2.0 2.0 0.00 0.01 0.01 80 1019.4
20260905215243 50 237 1.0 1.0 0.00 0.01 0.01 82 1019.1
20260905214739 50 207 2.0 2.0 0.00 0.01 0.01 81 1019.1
20260905214234 49 249 2.0 3.0 0.00 0.01 0.01 83 1019.1
20260905213730 48 282 0.0 1.0 0.00 0.01 0.01 85 1019.2
20260905213226 47 156 2.0 3.0 0.00 0.01 0.01 87 1019.2
20260905212720 47 78 2.0 2.0 0.00 0.01 0.01 88 1019.0
20260905212219 47 238 0.0 0.0 0.00 0.01 0.01 88 1019.0
20260905211714 47 207 2.0 2.0 0.00 0.01 0.01 88 1019.2
20260905211209 46 227 0.0 1.0 0.00 0.01 0.01 88 1019.0
20260905210706 46 195 1.0 1.0 0.00 0.01 0.01 88 1018.9
20260905210206 46 266 2.0 2.0 0.00 0.01 0.01 88 1018.8
20260905205704 46 270 2.0 2.0 0.00 0.01 0.01 89 1018.8
20260905205159 46 235 1.0 1.0 0.00 0.01 0.01 89 1018.6
20260905204658 46 195 1.0 1.0 0.00 0.01 0.01 89 1018.8
20260905204154 46 229 2.0 2.0 0.00 0.01 0.01 89 1018.7
20260905203648 46 213 2.0 3.0 0.00 0.01 0.01 90 1018.4
20260905203144 46 271 1.0 1.0 0.00 0.01 0.01 90 1018.3
20260905202639 46 215 1.0 1.0 0.00 0.01 0.01 90 1018.1
20260905202135 46 223 1.0 1.0 0.00 0.01 0.01 90 1018.0
20260905201630 46 213 2.0 2.0 0.00 0.01 0.01 89 1018.0
20260905201130 47 212 3.0 3.0 0.00 0.01 0.01 89 1018.0
20260905200626 47 296 2.0 3.0 0.00 0.01 0.01 88 1017.9
20260905200121 47 257 2.0 2.0 0.00 0.01 0.01 88 1018.0
20260905195619 47 226 2.0 2.0 0.00 0.01 0.01 88 1018.1
20260905195115 47 228 2.0 2.0 0.00 0.01 0.01 88 1017.9
20260905194615 47 244 2.0 2.0 0.00 0.01 0.01 87 1017.9
20260905194114 47 230 2.0 2.0 0.00 0.01 0.01 87 1017.9
20260905193609 47 283 1.0 1.0 0.00 0.01 0.01 86 1017.9
20260905193104 47 208 2.0 3.0 0.00 0.01 0.01 86 1017.6
20260905192600 48 203 2.0 2.0 0.00 0.01 0.01 85 1017.9
20260905192056 47 227 3.0 3.0 0.00 0.01 0.01 85 1017.5
20260905191554 47 233 1.0 2.0 0.00 0.01 0.01 85 1017.5
20260905191054 47 179 3.0 3.0 0.00 0.01 0.01 86 1017.3
20260905190552 47 180 2.0 2.0 0.00 0.01 0.01 86 1017.0
20260905190051 47 254 2.0 2.0 0.00 0.01 0.01 86 1017.4
20260905185550 47 227 1.0 2.0 0.00 0.01 0.01 86 1017.2
20260905185050 47 200 1.0 1.0 0.00 0.01 0.01 86 1016.8
20260905184544 48 258 2.0 2.0 0.00 0.01 0.01 86 1017.2
20260905184044 47 224 3.0 3.0 0.00 0.01 0.01 86 1017.1
20260905183543 47 52 0.0 0.0 0.00 0.01 0.01 85 1017.0
20260905183033 47 245 0.0 0.0 0.00 0.01 0.01 86 1017.1
20260905182532 47 219 1.0 2.0 0.00 0.01 0.01 86 1017.1
20260905182027 47 234 1.0 2.0 0.00 0.01 0.01 86 1016.8
20260905181522 47 234 1.0 2.0 0.00 0.01 0.01 86 1016.8
20260905181021 47 248 2.0 2.0 0.00 0.01 0.01 86 1016.8
20260905180516 47 203 1.0 2.0 0.00 0.01 0.01 86 1017.0
20260905180011 47 267 3.0 3.0 0.00 0.01 0.01 85 1016.7
20260905175510 47 211 1.0 1.0 0.00 0.01 0.01 85 1016.8
20260905175006 47 201 1.0 2.0 0.00 0.01 0.01 85 1016.7
20260905174501 48 226 2.0 2.0 0.00 0.01 0.01 84 1016.3
20260905173957 48 222 3.0 5.0 0.00 0.01 0.01 84 1016.5
20260905173453 48 219 1.0 1.0 0.00 0.01 0.01 83 1016.3
20260905172948 48 191 1.0 1.0 0.00 0.01 0.01 83 1016.3
20260905172446 48 274 2.0 3.0 0.00 0.01 0.01 82 1016.2
20260905171942 49 231 1.0 2.0 0.00 0.01 0.01 82 1016.2
20260905171439 49 247 3.0 3.0 0.00 0.01 0.01 81 1016.2
20260905170935 49 171 6.0 8.0 0.00 0.01 0.01 81 1016.3
20260905170431 49 215 1.0 1.0 0.00 0.01 0.01 81 1016.3
20260905165930 50 304 1.0 1.0 0.00 0.01 0.01 80 1016.3
20260905165425 50 224 3.0 5.0 0.00 0.01 0.01 80 1016.2
20260905164920 50 270 2.0 3.0 0.00 0.01 0.01 79 1016.3
20260905164420 50 221 3.0 5.0 0.00 0.01 0.01 81 1016.3
20260905163915 50 238 0.0 1.0 0.00 0.01 0.01 80 1016.2
20260905163412 50 207 2.0 2.0 0.00 0.01 0.01 79 1016.2
20260905162908 50 183 2.0 2.0 0.00 0.01 0.01 80 1016.2
20260905162402 50 326 1.0 1.0 0.00 0.01 0.01 80 1016.1
20260905161857 50 246 2.0 2.0 0.00 0.01 0.01 80 1016.2
20260905161356 50 255 1.0 1.0 0.00 0.01 0.01 80 1016.2
20260905160854 51 212 1.0 3.0 0.00 0.01 0.01 79 1016.3
20260905160348 51 206 4.0 5.0 0.00 0.01 0.01 79 1016.4
20260905155843 51 247 3.0 3.0 0.00 0.01 0.01 80 1016.1
20260905155337 51 199 5.0 6.0 0.00 0.01 0.01 80 1016.0
20260905154836 51 214 2.0 3.0 0.00 0.01 0.01 80 1016.1
20260905154332 51 216 5.0 6.0 0.00 0.01 0.01 79 1015.7
20260905153827 51 219 7.0 10.0 0.00 0.01 0.01 81 1015.9
20260905153324 51 172 2.0 3.0 0.00 0.01 0.01 81 1015.7
20260905152823 52 211 5.0 8.0 0.00 0.01 0.01 81 1015.7
20260905152322 52 209 2.0 2.0 0.00 0.01 0.01 81 1015.7
20260905151818 52 209 1.0 2.0 0.00 0.01 0.01 80 1015.9
20260905151314 53 232 4.0 6.0 0.00 0.01 0.01 81 1015.5
20260905150814 53 177 4.0 7.0 0.00 0.01 0.01 80 1015.7
20260905150314 53 203 2.0 3.0 0.00 0.01 0.01 79 1015.5
20260905145811 53 239 1.0 2.0 0.00 0.01 0.01 78 1015.8
20260905145310 53 174 2.0 2.0 0.00 0.01 0.01 77 1015.6
20260905144809 54 186 4.0 5.0 0.00 0.01 0.01 76 1015.6
20260905144306 54 238 3.0 5.0 0.05 0.01 0.01 75 1015.6
20260905143804 54 201 3.0 3.0 0.05 0.01 0.01 75 1015.5
20260905143259 54 253 4.0 6.0 0.00 0.00 0.00 75 1015.5
20260905142757 54 173 3.0 5.0 0.00 0.00 0.00 78 1015.3
20260905142251 54 168 2.0 3.0 0.00 0.00 0.00 81 1015.2
20260905141748 54 197 2.0 2.0 0.00 0.00 0.00 84 1015.1
20260905141243 54 216 1.0 2.0 0.00 0.00 0.00 84 1015.0
20260905140738 54 193 1.0 3.0 0.00 0.00 0.00 85 1014.9
20260905140233 55 193 1.0 1.0 0.00 0.00 0.00 84 1015.0
20260905135732 55 207 2.0 3.0 0.00 0.00 0.00 84 1014.8
20260905135228 55 194 3.0 3.0 0.00 0.00 0.00 84 1014.7
20260905134727 56 238 5.0 6.0 0.00 0.00 0.00 84 1014.6
20260905134227 56 234 5.0 8.0 0.00 0.00 0.00 84 1014.7
20260905133722 57 224 3.0 3.0 0.00 0.00 0.00 85 1014.8
20260905133217 57 207 3.0 3.0 0.00 0.00 0.00 86 1014.5
20260905132716 57 184 3.0 3.0 0.00 0.00 0.00 86 1014.4
20260905132212 57 228 2.0 2.0 0.00 0.00 0.00 86 1014.4
20260905131706 57 192 5.0 6.0 0.00 0.00 0.00 87 1014.3
20260905131202 57 218 1.0 2.0 0.00 0.00 0.00 87 1014.4
20260905130656 57 135 1.0 2.0 0.00 0.00 0.00 88 1014.2
20260905130156 57 217 3.0 3.0 0.00 0.02 0.02 89 1014.0
20260905125650 56 275 1.0 2.0 0.00 0.02 0.02 90 1014.1
20260905125146 56 200 1.0 2.0 0.00 0.02 0.02 91 1014.0
20260905124642 56 283 0.0 0.0 0.00 0.02 0.02 91 1014.0
20260905124138 56 266 0.0 0.0 0.00 0.02 0.02 91 1014.0
20260905123633 57 229 0.0 1.0 0.00 0.02 0.02 91 1014.1
20260905123130 57 228 0.0 1.0 0.00 0.02 0.02 91 1014.1
20260905122629 57 269 0.0 0.0 0.00 0.02 0.02 90 1014.2
20260905122125 57 247 0.0 1.0 0.00 0.02 0.02 90 1014.0
20260905121619 57 224 2.0 2.0 0.00 0.02 0.02 90 1014.2
20260905121115 57 215 0.0 0.0 0.00 0.02 0.02 90 1013.9
20260905120614 56 223 2.0 2.0 0.00 0.02 0.02 90 1013.9
20260905120109 56 235 1.0 1.0 0.00 0.02 0.02 90 1014.1
20260905115608 55 202 0.0 1.0 0.00 0.02 0.02 92 1013.7
20260905115103 54 177 4.0 6.0 0.00 0.02 0.02 97 1013.7
20260905114602 53 215 1.0 1.0 0.00 0.02 0.02 99 1013.6
20260905114101 52 279 1.0 1.0 0.00 0.02 0.02 99 1013.9
20260905113556 51 252 0.0 0.0 0.00 0.02 0.02 99 1013.6
20260905113051 51 309 0.0 0.0 0.00 0.02 0.02 99 1013.2
20260905112546 51 304 0.0 0.0 0.00 0.02 0.02 99 1013.4
20260905112042 51 284 0.0 0.0 0.00 0.02 0.02 99 1013.4
20260905111537 51 324 0.0 0.0 0.00 0.02 0.02 99 1013.3
20260905111036 50 191 1.0 1.0 0.00 0.02 0.02 99 1013.2
20260905110536 51 253 0.0 0.0 0.00 0.02 0.02 98 1013.2
20260905110031 51 250 0.0 0.0 0.00 0.02 0.02 98 1013.2
20260905105531 51 245 1.0 1.0 0.00 0.02 0.02 98 1013.1
20260905105030 51 259 0.0 0.0 0.00 0.02 0.02 98 1013.1
20260905104526 51 307 0.0 0.0 0.00 0.02 0.02 98 1012.8
20260905104025 52 262 0.0 1.0 0.00 0.02 0.02 98 1012.6
20260905103521 52 249 0.0 1.0 0.00 0.02 0.02 98 1012.5
20260905103017 52 299 0.0 0.0 0.00 0.02 0.02 98 1012.7
20260905102512 53 296 0.0 0.0 0.00 0.02 0.02 97 1012.6
20260905102009 53 289 0.0 0.0 0.00 0.02 0.02 97 1012.4
20260905101507 53 263 0.0 0.0 0.00 0.02 0.02 97 1012.4
20260905101005 54 285 0.0 0.0 0.00 0.02 0.02 97 1012.7
20260905100502 54 276 0.0 0.0 0.00 0.02 0.02 97 1012.7
20260905100001 54 278 0.0 0.0 0.00 0.02 0.02 97 1012.7
20260905095456 55 263 0.0 0.0 0.00 0.02 0.02 97 1012.4
20260905094951 55 291 0.0 0.0 0.00 0.02 0.02 97 1012.4
20260905094446 55 277 0.0 0.0 0.00 0.02 0.02 97 1012.3
20260905093945 55 225 1.0 1.0 0.00 0.02 0.02 96 1012.5
20260905093440 55 241 1.0 1.0 0.00 0.02 0.02 96 1012.3
20260905092936 56 228 0.0 1.0 0.00 0.02 0.02 96 1012.5
20260905092431 56 265 0.0 0.0 0.00 0.02 0.02 95 1012.3
20260905091926 56 300 0.0 0.0 0.00 0.02 0.02 94 1012.4
20260905091421 57 269 0.0 0.0 0.00 0.02 0.02 94 1012.1
20260905090920 57 300 0.0 0.0 0.00 0.02 0.02 93 1012.3
20260905090416 57 328 1.0 1.0 0.00 0.02 0.02 93 1012.3
20260905085915 57 340 3.0 3.0 0.00 0.02 0.02 94 1012.4
20260905085414 57 343 1.0 2.0 0.00 0.02 0.02 94 1012.0
20260905084911 57 353 1.0 2.0 0.00 0.02 0.02 94 1012.0